Location: Grust
(42.8833°N, 0.0333°W)
Time: 19:38:09
(UTC+00:00)

USA 215 - Pass Details

Date: 25 October 2020
Orbit: 1102 x 1106 km, 123.0° (Epoch: 20 November)

Event Time Altitude Azimuth Distance (km) Brightness Sun altitude
Exits shadow 19:20:23 41° 46° (NE) 1,552 3.7 -26.0°
Maximum altitude 19:21:15 43° 26° (NNE) 1,508 3.8 -26.2°
Drops below altitude 10° 19:27:19 10° 318° (NW) 2,965 6.1 -27.3°
Sets 19:29:56 0° 312° (NW) 3,925 7.0 -27.7°
